カタログに戻る

THORAD DELTA 1 DEB

運用中SSO
NORAD 8173·DEBRIS·🇺🇸 United States

打ち上げ Nov 15, 1974 から Vandenberg Space Force Base

Loading…

次のパス (今後24時間)

TLE

最新Source: Space-Track

元期: Sep 14, 2026, 22:16 UTC

1 08173U 74089AP  26257.92790503 -.00000009  00000-0  23787-3 0  9994
2 08173 102.0053 241.1509 0108772 316.9603  68.1519 12.51903498366228

AllMySatでTHORAD DELTA 1 DEBをリアルタイム追跡

Download on the App Store